Location: Maiden
(35.5760°N, 81.2120°W)
Time: 01:56:20
(UTC-04:00)

A-11 Canister half - Pass Details

Date: 06 August 2020
Orbit: 1527 x 1682 km, 47.3° (Epoch: 25 September)

Event Time Altitude Azimuth Distance (km) Brightness Sun altitude
Rises 12:01:34 0° 199° (SSW) 4,874 11.8 62.4°
Reaches altitude 10° 12:05:04 10° 190° (S) 3,905 11.5 63.0°
Maximum altitude 12:13:48 35° 129° (SE) 2,474 11.4 64.3°
Drops below altitude 10° 12:22:35 10° 69° (ENE) 3,942 11.4 65.6°
Sets 12:26:06 0° 61° (ENE) 4,926 11.7 66.1°
